Weather in Oktyabr'sky

Russia / Volgograd Oblast     49°38′15″N   44°33′23″E
temp.,
°C
wind,
m/s
gust,
m/s
humid.,
%
clouds,
%
prec.,
mm/h
press.,
hPa
HPBL,
m
7 august, sun
sun700:00+24ne510349 0.0 1015188
03:00+24ene512316 0.0 1015235
06:00+24e5113731 0.0 1016272
09:00+30e69246 0.0 10161241
12:00+33ese651851 0.0 10153730
15:00+33ene861797 0.0 10143778
18:00+32ne681950 0.0 1014851
21:00+27ne814299 0.0 1015426
8 august, mon
mon800:00+23ne4103644 0.0 1016172
03:00+21ne474258 0.0 1016119
06:00+22ene364267 0.0 1017127
09:00+30ese452361 0.0 1017737
12:00+33e551884 0.0 10173799
15:00+33ne641710 0.0 10163646
18:00+26se6103451 0.1 1017293
21:00+21ne115156 0.1 101811
9 august, tue
tue900:00+21nne34500 0.0 101851
03:00+20nne47510 0.0 1018111
06:00+21ne37495 0.0 1018146
09:00+30ne56300 0.0 1018901
12:00+33ene43220 0.0 10172871
15:00+34ene23184 0.0 10163659
18:00+30ene4726100 0.0 1016306
21:00+28ne492964 0.0 1017245
10 august, wed
wed1000:00+24e34418 0.0 101752
03:00+23ese34419 0.0 101749
06:00+23ene36441 0.0 1017143
09:00+30e55295 0.0 1017935
12:00+34ese442329 0.0 10163314
15:00+34e442354 0.0 10153049
18:00+30ene582738 0.0 1014316
21:00+26ene512334 0.0 1014208
11 august, thu
thu1100:00+25e512365 0.0 1014219
03:00+23ene464113 0.0 101486
06:00+24e23423 0.0 101575
09:00+30wnw112993 0.1 1015376
12:00+34nnw132340 0.1 10152159
15:00+36e351827 0.1 10133612
18:00+32ne61027100 0.0 1014562
21:00+26nne4939100 0.0 1016212